Location: ???????
(60.6683°N, 46.8222°E)
Time: 23:07:10
(UTC+00:00)

Daily predictions for brighter satellites

Satellite Brightness Start Highest point End
(mag) Time Altitude Azimuth Time Altitude Azimuth Time Altitude Azimuth
COSMOS 2406 3.9 15:36:43 10° NW 15:42:09 42° NNE 15:47:32 10° E
Cosmos 1937 Rocket 4.1 15:39:03 10° S 15:43:45 35° ESE 15:48:28 10° NE
Cosmos 2297 Rocket 2.8 15:41:13 10° WSW 15:46:51 64° NW 15:52:32 10° NE
In-Cosmos 22 4.1 15:43:37 10° NNW 15:48:54 66° ENE 15:54:12 10° SSE
Cosmos 2082 3.8 15:44:59 10° SW 15:50:38 89° NW 15:56:21 10° NE
USA 186 1.8 15:48:29 10° SSE 15:51:38 63° ENE 15:54:54 10° N
Cosmos 1842 4.2 15:49:03 10° NNW 15:52:50 52° W 15:56:36 10° S
Cosmos 1975 Rocket 3.4 15:49:42 10° NNW 15:54:03 70° W 15:58:21 10° S
CENTAUR R/B 3.2 15:47:28 10° WNW 15:54:57 84° SSW 16:03:33 10° ESE
Cosmos 1544 3.1 15:51:44 10° SSW 15:55:24 88° WNW 15:59:05 10° NNE
Cosmos 1674 3.4 15:52:03 10° N 15:55:40 36° ENE 15:59:15 10° SE
OPS 8737 4.1 15:53:10 10° WSW 15:56:12 78° NNW 15:59:04 10° ENE
COSMO-SKYMED 1 3.2 15:52:19 10° NNE 15:56:39 64° WNW 16:00:57 10° SSW
CZ-2C R/B 3.4 15:53:00 10° NNE 15:57:55 32° E 16:02:53 10° SSE
OBJECT-B 1.5 15:55:45 10° SE 15:58:46 36° ENE 16:01:48 10° N
DMSP B5D1-3 4.5 15:55:50 10° NNE 16:00:56 67° ESE 16:06:01 10° S
ATLAS 3B R/B 2.8 15:54:38 10° WNW 16:01:21 75° NNE 16:08:20 10° ESE
USA 238 DEB 4.1 15:55:25 10° WNW 16:02:25 68° SW 16:09:45 10° SE
USA 238 4.1 15:55:31 10° WNW 16:02:31 68° SW 16:09:51 10° SE
ARGOS 3.4 15:57:14 10° SSE 16:02:37 76° WSW 16:08:02 10° NNW
H-2A R/B 2.6 15:58:13 10° S 16:03:10 62° WSW 16:08:17 10° NNW
Cosmos 1689 Rocket 4.4 16:02:15 10° N 16:04:57 31° WNW 16:07:38 10° SW
Cosmos 1048 Rocket 4.1 16:01:40 10° NNW 16:06:59 88° NE 16:12:21 10° SSE
MOS 1 4.3 16:01:21 10° SSE 16:07:04 81° ENE 16:12:49 10° NNW
FREGAT/IRIS 2.2 16:04:42 10° SSE 16:07:16 64° ENE 16:09:53 10° N
Cosmos 1707 2.8 16:03:46 10° NNW 16:07:39 81° WSW 16:11:30 10° S
Resurs 01 Rocket 2.2 16:04:30 10° SE 16:08:39 40° ENE 16:12:50 10° N
NOSS 3-1 (C) 3.6 16:02:43 10° WSW 16:08:41 89° SSE 16:15:53 10° ENE
Lacrosse 4 Rocket 2.4 16:05:45 10° NW 16:09:32 35° NNE 16:13:17 10° E
Iridium 4 Rocket 4.0 16:06:44 10° SSW 16:11:49 71° W 16:17:25 10° N
KORONAS-FOTON 4.2 16:09:01 10° N 16:12:51 48° ENE 16:16:40 10° SE
Sich 1 Rocket 3.7 16:11:01 10° S 16:15:28 60° E 16:19:59 10° NNE
Cosmos 1269 Rocket 4.3 16:10:33 10° NNW 16:15:48 55° NE 16:20:38 12° SE
Cosmos 1743 4.1 16:12:08 10° SW 16:15:50 44° WNW 16:19:33 10° N
SJ-6B 2.7 16:12:33 10° SSE 16:16:18 86° ENE 16:20:07 10° NNW
NOSS 2-3 (E) 4.0 16:13:20 10° SW 16:17:59 79° SSE 16:23:56 10° ENE
Cosmos 2263 Rocket 2.2 16:12:42 10° SSW 16:18:08 56° ESE 16:23:38 10° NE
ATLAS CENTAUR R/B 1.3 16:16:37 10° WSW 16:20:27 73° NNW 16:24:10 10° ENE
Meteor 2-9 Rocket 4.3 16:15:04 10° SSW 16:20:56 87° ESE 16:26:44 10° NNE
Cosmos 1092 Rocket 4.1 16:17:53 10° N 16:23:59 60° ENE 16:30:05 10° SSE
Cosmos 1464 Rocket 4.0 16:18:57 10° S 16:24:59 61° E 16:31:05 10° NNE
SL-08 RB Rocket 4.2 16:21:05 10° S 16:25:39 65° WSW 16:30:13 10° NNW
Cosmos 1844 Rocket 3.7 16:21:46 10° SSE 16:25:59 23° ESE 16:30:14 10° NE
ARIANE 5 R/B 3.3 16:22:36 14° ESE 16:25:59 36° ENE 16:29:59 10° N
IGS 5A 4.4 16:24:11 15° ESE 16:27:05 31° ENE 16:30:47 10° N
Cosmos 2227 4.2 16:21:48 10° SSW 16:27:29 66° ESE 16:33:09 10° NE
Cosmos 990 Rocket 3.9 16:23:33 10° SSW 16:28:42 83° ESE 16:33:54 10° NE
SJ 16-02 1.9 16:27:05 10° SW 16:31:26 64° NW 16:35:50 10° NNE
Spot 2 Rocket 4.2 16:27:44 14° ESE 16:31:36 39° NE 16:36:16 10° N
Cosmos 2026 Rocket 4.2 16:25:22 10° N 16:31:37 56° ENE 16:37:48 10° SE
Meteor 2-13 Rocket 4.5 16:27:44 10° NNW 16:33:57 70° ENE 16:40:06 10° SSE
Cosmos 2084 3.7 16:29:44 10° W 16:34:11 73° NNW 16:38:41 10° ENE
Okean 2 Rocket 3.1 16:31:22 10° S 16:35:48 61° E 16:40:14 10° NNE
Meteor 1-12 Rocket 4.3 16:30:22 10° S 16:36:11 63° E 16:41:55 10° NNE
NOSS 2-2 (C) 4.4 16:33:49 10° S 16:36:45 23° SE 16:40:05 10° ENE
Ariane Rocket 3.5 16:33:15 10° S 16:38:17 62° WSW 16:43:22 10° NNW
Cosmos 1833 Rocket 3.0 16:34:32 10° NW 16:40:09 57° NE 16:44:24 17° ESE
Cosmos 494 Rocket 4.1 16:35:12 10° NW 16:40:29 81° WSW 16:45:32 11° SSE
Okean 1 Rocket 3.9 16:37:06 12° SSE 16:40:40 31° E 16:44:39 10° NNE
Lacrosse 5 rocket 1.9 16:36:41 10° WSW 16:40:52 47° SSE 16:43:59 18° E
USA 116 4.4 16:38:58 10° N 16:42:07 49° WNW 16:45:30 10° SW
Cosmos 2227 Rocket 3.4 16:38:44 10° WSW 16:44:09 44° NNW 16:49:35 10° NE
NOSS 2-3 (D) 4.0 16:39:30 10° WSW 16:44:13 89° NW 16:50:17 10° ENE
Cosmos 1340 Rocket 4.4 16:44:11 16° E 16:44:19 16° E 16:46:52 10° NE
MONITOR-E 2.8 16:44:14 34° SSE 16:44:55 85° WSW 16:46:51 10° NNW
CZ-2C R/B 4.4 16:41:56 10° NNE 16:45:55 31° E 16:49:02 15° SSE
Cosmos 2298 Rocket 4.5 16:41:56 10° S 16:46:52 39° ESE 16:51:49 10° NE
SPOT 3 Rocket 3.5 16:42:46 10° SSE 16:47:56 90° ESE 16:53:09 10° NNW
Resurs 1-3 3.6 16:43:33 10° SSE 16:47:58 86° WSW 16:52:25 10° NNW
Cosmos 2251 Rocket 4.3 16:43:10 10° NNW 16:48:18 41° NE 16:51:52 18° ESE
Cosmos 1300 Rocket 3.5 16:45:01 10° S 16:49:25 76° E 16:53:53 10° NNE
Cosmos 1461 3.8 16:45:47 10° WNW 16:50:24 51° N 16:54:22 14° E
USA 234 4.2 16:45:31 10° E 16:50:35 23° SE 16:55:39 10° S
Cosmos 1891 Rocket 4.4 16:46:38 10° S 16:52:46 88° E 16:58:50 10° NNE
Cosmos 1898 Rocket 3.7 16:50:27 10° SW 16:55:39 77° NW 17:00:54 10° NNE
USA 245 3.2 16:56:17 30° E 16:56:38 31° ENE 16:58:51 10° N
Cosmos 1536 Rocket 4.3 16:53:43 10° NNW 16:58:04 55° W 17:02:25 10° S
Meteor 2-5 Rocket 3.7 16:54:44 10° NNW 17:00:22 87° ENE 17:05:36 12° SSE
DMSP B5D2-2 4.0 16:56:32 10° NNE 17:01:51 68° ESE 17:07:07 10° S
Cosmos 1892 Rocket 3.7 16:59:09 10° N 17:03:26 53° ENE 17:05:46 25° SE
Terra 2.9 17:01:25 20° E 17:03:43 30° NE 17:07:51 10° N
NOSS 3-2 (C) 4.5 16:57:42 10° WNW 17:04:36 54° SW 17:11:17 15° SSE
USA 229 DEB 3.9 16:59:32 10° WSW 17:06:19 78° NNW 17:13:36 10° ENE
USA 229 3.9 16:59:38 10° WSW 17:06:25 78° NNW 17:13:41 10° ENE
Cosmos 1626 2.0 17:03:00 10° NNW 17:06:44 73° ENE 17:08:46 25° SSE
Exosat Rocket 4.1 17:05:37 10° S 17:10:19 34° ESE 17:14:52 10° NE
NOSS 2-3 (C) 4.2 17:06:05 10° WSW 17:10:55 78° NNW 17:17:12 10° ENE
Cosmos 372 Rocket 3.9 17:09:49 10° SSW 17:15:03 73° ESE 17:20:17 10° NE
Cosmos 2150 Rocket 4.1 17:11:41 10° S 17:16:58 56° ESE 17:22:19 10° NE
CARTOSAT-1 4.1 17:15:16 29° ESE 17:17:00 43° ENE 17:21:07 10° N
Cosmos 2151 Rocket 3.6 17:12:31 10° SSW 17:17:01 85° WNW 17:21:34 10° NNE
NOSS 3-1 (A) 3.7 17:12:15 10° WSW 17:18:21 79° NNW 17:25:45 10° ENE
Cosmos 2082 Rocket 2.4 17:14:09 10° NW 17:19:46 63° NE 17:22:53 26° ESE
MOS 1 Rocket 4.3 17:16:02 10° N 17:20:30 46° WNW 17:24:44 10° SW
Cosmos 2034 Rocket 4.1 17:15:31 10° SSW 17:21:54 86° W 17:28:19 10° NNE
SPOT 5 3.4 17:21:41 27° ESE 17:24:13 50° ENE 17:29:23 10° NNW
Cosmos 1937 Rocket 3.9 17:20:17 10° SW 17:25:31 65° NW 17:30:43 10° NNE
NOSS 8 (A) 4.5 17:22:46 10° WNW 17:26:01 83° NNE 17:27:23 38° ESE
COSMOS 2406 3.2 17:21:14 10° NW 17:26:56 79° SW 17:30:13 26° SSE
Meteor 1-24 Rocket 3.7 17:22:23 10° NNW 17:27:50 79° WSW 17:31:59 18° S
Cosmos 1805 3.1 17:25:30 21° S 17:27:58 69° ESE 17:31:54 10° NNE
Cosmos 1125 Rocket 3.7 17:23:01 10° S 17:28:08 49° ESE 17:33:17 10° NE
Okean 1-7 Rocket 3.6 17:25:14 10° NNW 17:29:49 68° ENE 17:31:48 33° SSE
NOSS 8 (H) 4.1 17:27:06 10° SW 17:30:04 63° SSE 17:30:30 55° ESE
NOSS 8 (E) 4.0 17:27:09 10° WSW 17:30:11 83° SSE 17:31:16 38° ENE
OBJECT-B 2.7 17:28:21 10° SSW 17:31:13 28° W 17:34:05 10° NNW
Cosmos 1674 4.2 17:27:39 10° NNW 17:31:13 36° W 17:34:46 10° SSW
Cosmos 2297 Rocket 3.8 17:26:45 10° W 17:31:53 33° NNW 17:37:00 10° NE
Cosmos 2266 Rocket 4.2 17:27:37 10° N 17:33:35 53° ENE 17:36:26 30° SE
NOSS 2-2 (E) 3.4 17:30:03 10° SW 17:33:41 55° SE 17:38:14 10° ENE
CRYOSAT 2 4.3 17:30:57 10° N 17:35:53 67° E 17:38:33 27° SSE
CZ-2C R/B 3.0 17:33:12 10° NNE 17:38:39 70° WNW 17:44:11 10° SSW
SL-14 R/B 3.5 17:34:58 10° NNW 17:38:51 66° W 17:40:43 29° S
Cosmos 2098 Rocket 4.3 17:31:43 10° NNW 17:39:09 68° ENE 17:42:57 28° SSE
Cosmos 1655 Rocket 4.0 17:33:02 10° NNW 17:39:17 68° ENE 17:42:37 29° SSE
ATLAS 2AS CENTAUR R/B 3.7 17:37:35 26° SE 17:39:30 29° ESE 17:45:55 10° ENE
ERS-1 Rocket 3.0 17:37:23 33° SE 17:39:35 66° ENE 17:44:36 10° NNW
Cosmos 2292 Rocket 3.2 17:37:32 10° N 17:40:23 43° ENE 17:40:23 43° ENE
Meteor 1-21 Rocket 4.4 17:36:11 10° NNW 17:41:49 58° ENE 17:44:18 33° SE
NOSS 2-2 (D) 3.4 17:38:31 10° SW 17:42:07 53° SE 17:44:57 20° ENE
Cosmos 1733 3.1 17:42:26 39° S 17:43:45 73° E 17:47:36 10° NNE
Cosmos 1726 4.1 17:45:30 17° ENE 17:45:30 17° ENE 17:46:57 10° NE
Resurs 01 Rocket 2.6 17:41:42 15° SSW 17:45:10 45° W 17:49:28 10° NNW
Cosmos 1602 Rocket 4.1 17:41:01 10° N 17:45:12 43° ENE 17:46:05 38° E
CENTAUR R/B 3.9 17:38:07 10° WNW 17:45:21 43° SW 17:51:22 18° S
Lacrosse 4 Rocket 1.2 17:44:33 10° NW 17:48:39 86° NE 17:49:36 52° SE
Cosmos 1703 4.3 17:45:53 10° N 17:49:24 31° ENE 17:49:39 31° ENE
Landsat 7 4.0 17:46:54 27° S 17:49:27 71° WSW 17:54:15 10° NNW
Cosmos 909 Rocket 4.1 17:43:02 10° NW 17:50:03 80° SW 17:53:07 33° SE
Cosmos 1953 4.1 17:52:27 19° ENE 17:52:27 19° ENE 17:54:28 10° NE
ATLAS 3B R/B 2.9 17:45:27 10° WNW 17:52:08 64° SW 17:55:34 31° SSE
Cosmos 1634 Rocket 3.9 17:49:46 12° S 17:55:32 84° E 18:01:47 10° NNE
SPOT 1/Viking Rocket 3.6 17:53:08 30° S 17:55:46 76° WSW 18:00:59 10° NNW
Cosmos 1844 3.7 17:51:24 10° SSW 17:56:58 59° ESE 18:02:31 10° NE
Cosmos 2278 Rocket 3.5 17:58:55 22° E 17:58:55 22° E 18:01:59 10° NE
Cosmos 1626 Rocket 3.6 17:55:11 10° N 17:59:36 66° ENE 18:00:31 51° SE
ATLAS CENTAUR R/B 2.1 17:56:04 10° WNW 17:59:42 44° N 18:01:23 26° NE
NOSS 3-1 (C) 3.9 17:53:38 10° W 17:59:57 71° N 18:06:48 13° E
Cosmos 2285 Rocket 3.9 17:54:02 10° SSW 18:00:18 70° ESE 18:06:39 10° NE
Cosmos 1766 3.4 17:58:20 28° SSW 18:00:20 75° WNW 18:04:20 10° NNE
Cosmos 2263 Rocket 3.0 17:56:46 10° WSW 18:02:14 52° NW 18:07:46 10° NE
Cosmos 1470 3.1 18:02:44 46° ENE 18:02:44 46° ENE 18:06:06 10° NNE
ARIANE 5 R/B 3.4 18:00:10 25° SSW 18:02:24 47° W 18:06:38 10° NNW
IGS 5A 4.1 18:00:39 30° SSW 18:02:25 52° W 18:06:30 10° NNW
Cosmos 1758 3.9 18:06:25 41° ENE 18:06:25 41° ENE 18:09:44 10° NNE
NOSS 2-3 (E) 4.5 18:03:56 10° W 18:08:59 68° N 18:14:53 13° E
Uosat 12 SS-18 rocket 4.2 18:04:47 10° WNW 18:09:06 67° NNE 18:10:23 44° E
Cosmos 1844 Rocket 2.5 18:03:33 10° SSW 18:09:08 78° SE 18:14:46 10° NE
Cosmos 1455 Rocket 3.0 18:08:48 57° ESE 18:09:09 59° E 18:13:29 10° NNE
Spot 2 Rocket 4.0 18:07:55 27° S 18:10:29 56° WSW 18:15:29 10° NNW
SJ 16-02 4.0 18:07:28 10° W 18:10:52 21° NNW 18:14:16 10° NNE
Cosmos 2084 3.7 18:09:33 10° WNW 18:14:01 71° N 18:15:18 45° E
Cosmos 1328 4.4 18:10:45 10° N 18:14:34 42° ENE 18:14:34 42° ENE
Okean 1 Rocket 3.8 18:14:13 11° SW 18:18:24 53° WNW 18:22:50 10° N
Lacrosse 5 rocket 1.7 18:15:25 10° W 18:19:36 52° SSW 18:19:36 52° SSW
Cosmos 1340 Rocket 2.7 18:19:45 69° SSW 18:20:12 88° WNW 18:24:15 10° NNE
CZ-2C R/B 4.3 18:18:57 10° NNE 18:23:19 55° WNW 18:27:16 12° SW
Cosmos 2180 Rocket 4.4 18:21:13 36° S 18:23:58 73° E 18:30:20 10° NNE
Cosmos 1833 Rocket 3.2 18:18:40 10° NW 18:24:08 50° WSW 18:26:05 35° S
USA 290 3.4 18:21:07 10° NNW 18:23:38 38° NNE 18:23:38 38° NNE
NOSS 2-2 (C) 3.2 18:22:53 10° WSW 18:26:39 84° SSE 18:31:26 10° ENE
Cosmos 407 Rocket 3.6 18:23:32 10° NNW 18:28:39 64° NE 18:29:45 50° ESE
Cosmos 2227 Rocket 4.0 18:24:35 10° WNW 18:29:31 29° N 18:34:27 10° NE
Cosmos 1461 3.1 18:25:09 10° WNW 18:29:57 84° NNE 18:30:43 63° ESE
Cosmos 2251 Rocket 3.7 18:25:35 10° NW 18:30:56 65° WSW 18:32:21 47° S
USA 234 3.4 18:28:30 10° E 18:34:48 47° SSE 18:41:06 10° SW
H-2A R/B 3.5 18:32:02 10° NNE 18:36:17 78° WNW 18:37:00 59° SW
Cosmos 2279 Rocket 4.0 18:36:18 26° SSW 18:40:00 81° WNW 18:46:20 10° NNE
Cosmos 1140 Rocket 3.6 18:35:40 10° NNW 18:40:49 64° NE 18:41:43 54° E
Terra 1.9 18:40:19 56° SSW 18:41:11 70° WSW 18:45:59 10° NNW
Cosmos 1758 Rocket 3.5 18:39:07 10° NNW 18:43:37 72° ENE 18:43:42 72° E
Cosmos 1825 Rocket 3.7 18:40:10 10° N 18:44:29 61° ENE 18:44:29 61° ENE
Spot 4 4.1 18:49:05 52° E 18:49:32 54° ENE 18:54:17 10° NNW
Meteor 1-16 Rocket 4.5 18:49:10 51° ESE 18:49:44 52° E 18:55:28 10° NNE
Meteor 2-21 Rocket 4.4 18:44:21 10° NNW 18:50:35 82° ENE 18:52:09 53° SSE
SL-24 DEB 4.0 18:49:29 10° N 18:54:09 89° E 18:54:21 82° S
ALOS 2 3.6 18:56:02 36° ENE 18:56:04 36° ENE 19:00:07 10° N
USA 229 DEB 3.9 18:50:53 10° WNW 18:57:49 74° N 19:02:36 24° E
USA 229 3.9 18:50:59 10° WNW 18:57:55 74° N 19:02:43 24° E
Cosmos 1544 Rocket 3.6 19:01:47 74° W 19:01:51 74° WNW 19:06:13 10° NNE
SPOT 5 3.9 19:00:55 35° SW 19:02:24 44° W 19:07:31 10° NNW
Cosmos 2082 Rocket 2.8 18:58:27 10° NW 19:03:46 44° WSW 19:04:43 40° SW
NOSS 3-4 (A) 3.6 19:06:43 53° ESE 19:06:43 53° ESE 19:12:34 10° ENE
NOSS 3-4 (C) 3.6 19:06:53 52° ESE 19:06:53 52° ESE 19:12:40 10° ENE
COSMOS 2455 4.2 19:09:37 24° E 19:09:37 24° E 19:12:43 10° ENE
Cosmos 1190 Rocket 3.8 19:02:47 10° NNW 19:08:07 88° ENE 19:08:33 76° SE
Aureole 1 Rocket 3.6 19:02:29 10° NNW 19:08:48 65° NE 19:09:29 59° E
NOSS 3-1 (A) 3.9 19:03:18 10° WNW 19:09:49 74° N 19:15:37 19° E
Cosmos 1125 Rocket 4.4 19:05:07 10° WSW 19:10:19 50° NW 19:15:31 10° NNE
Cosmos 1943 Rocket 4.2 19:12:44 14° ENE 19:12:44 14° ENE 19:14:10 10° ENE
Exosat Rocket 4.1 19:06:31 10° WSW 19:11:33 57° NW 19:16:42 10° NE
Cosmos 1340 4.4 19:11:36 10° N 19:14:10 26° NE 19:14:10 26° NE
SME Rocket 3.6 19:08:45 10° NNE 19:15:56 79° ESE 19:16:39 67° S
Cosmos 2297 Rocket 3.9 19:12:24 10° NW 19:17:25 31° N 19:22:27 10° ENE
ERS-1 Rocket 4.3 19:17:24 27° WSW 19:18:46 31° W 19:23:15 10° NNW
Cosmos 1726 3.2 19:19:59 43° NNW 19:19:59 43° NNW 19:22:44 10° N
Cosmos 1953 Rocket 3.7 19:15:11 10° NNW 19:19:04 68° N 19:19:04 68° N
Cosmos 614 Rocket 4.2 19:15:18 10° NW 19:20:22 54° WSW 19:20:34 54° WSW
SL-08 ROCKET BODY 4.3 19:16:01 10° NNW 19:21:53 69° ENE 19:22:36 62° ESE
NOSS 2-2 (E) 3.9 19:20:14 10° W 19:24:15 67° N 19:29:33 10° ENE
SL-08 R/B 4.4 19:18:51 10° NNW 19:25:16 84° ENE 19:26:23 63° SSE
Cosmos 1703 4.4 19:21:54 10° NNW 19:24:59 40° WNW 19:24:59 40° WNW
Lacrosse 4 Rocket 3.3 19:23:39 10° WNW 19:25:54 21° W 19:25:54 21° W
Cosmos 1953 3.0 19:28:08 53° NNW 19:28:08 53° NNW 19:31:26 10° N
CZ-4C R/B 3.9 19:31:41 21° E 19:31:41 21° E 19:34:16 10° ENE
ATLAS 2AS CENTAUR R/B 2.9 19:24:48 27° SW 19:29:32 67° SE 19:37:12 10° ENE
NOSS 2-2 (D) 3.8 19:28:43 10° W 19:34:34 35° ENE 19:37:49 10° ENE
Cosmos 1346 Rocket 4.5 19:29:58 10° N 19:32:52 26° NE 19:32:52 26° NE
Cosmos 2369 Rocket 4.2 19:35:45 15° E 19:35:45 15° E 19:37:33 10° ENE
Cosmos 1892 4.1 19:31:53 10° N 19:34:23 34° NNE 19:34:23 34° NNE
Thor Agena Rocket 4.4 19:31:54 10° NNE 19:36:11 38° ENE 19:36:11 38° ENE
In-Cosmos 22 Rocket 4.1 19:32:16 10° NNW 19:37:53 71° ENE 19:38:11 69° E
Cosmos 1741 Rocket 4.4 19:32:51 10° NNW 19:38:08 55° NE 19:38:48 51° ENE
Cosmos 1470 4.4 19:38:04 28° WNW 19:38:35 29° WNW 19:42:02 10° N
SL-27 R/B 4.1 19:35:17 10° NNW 19:37:29 33° N 19:37:29 33° N
ATLAS CENTAUR R/B 2.7 19:35:19 10° WNW 19:37:31 33° NW 19:37:31 33° NW
Cosmos 2278 Rocket 2.0 19:40:44 80° SSE 19:40:56 82° SE 19:46:38 10° NE
Cosmos 1844 4.4 19:35:47 10° WSW 19:41:19 51° NW 19:46:49 10° NE
ATLAS 3B R/B 4.0 19:36:31 10° WNW 19:41:50 25° WSW 19:42:49 24° SW
Cosmos 2263 Rocket 4.0 19:42:21 10° WNW 19:47:18 31° N 19:52:17 10° NE
Meteor 2-8 Rocket 4.4 19:49:36 64° ESE 19:49:53 65° E 19:55:54 10° NNE
NOSS 3-1 (C) 3.8 19:44:32 10° WNW 19:51:19 90° SW 19:54:08 44° ESE
RESURS DK-1 4.4 19:54:31 21° NE 19:54:31 21° NE 19:56:04 10° NE
Cosmos 1844 Rocket 3.8 19:48:10 10° W 19:53:30 43° NNW 19:58:52 10° NE
Cosmos 1408 4.4 19:52:55 10° N 19:54:59 29° NNE 19:54:59 29° NNE
Lacrosse 5 rocket 3.9 19:54:27 10° W 19:55:13 14° W 19:55:13 14° W
NOSS 2-3 (E) 4.4 19:54:37 10° WNW 20:00:12 84° NNE 20:02:15 48° ESE
Cosmos 1553 Rocket 3.9 20:01:04 69° SE 20:01:41 75° E 20:08:07 10° NNE
Cosmos 2058 Rocket 4.1 20:05:44 40° NE 20:05:44 40° NE 20:08:47 10° NNE
Cosmos 1386 Rocket 4.4 20:02:11 10° NNW 20:08:22 77° W 20:08:59 70° SSW
Cosmos 1825 3.8 20:05:48 10° N 20:08:10 32° NNE 20:08:10 32° NNE
Cosmos 1745 Rocket 3.9 20:05:26 10° NNW 20:11:34 72° W 20:12:07 67° SW
Cosmos 1375 Rocket 4.4 20:05:21 10° WNW 20:11:58 90° NNE 20:13:02 65° SE
Cosmos 1833 4.1 20:06:16 10° NW 20:12:05 87° SW 20:12:10 86° S
Cosmos 1300 4.3 20:15:35 32° NNE 20:15:35 32° NNE 20:17:46 10° NNE
Cosmos 2227 Rocket 3.6 20:09:48 10° NW 20:15:01 36° NNE 20:20:03 11° E
Cosmos 676 Rocket 4.5 20:10:21 10° NW 20:14:50 51° W 20:14:50 51° W
Cosmos 1076 Rocket 4.3 20:11:58 10° NNW 20:15:22 51° N 20:15:22 51° N
NOSS 2-2 (C) 4.3 20:13:24 10° W 20:18:17 54° NE 20:22:55 10° E
USA 234 3.2 20:11:58 10° E 20:19:23 60° SSW 20:25:01 10° WSW
Cosmos 1850 Rocket 4.0 20:13:46 10° NNW 20:18:39 78° NNW 20:18:39 78° NNW
Terra 4.0 20:19:13 16° W 20:19:50 16° W 20:22:47 10° NW
Cosmos 2228 3.8 20:25:15 48° NNW 20:25:15 48° NNW 20:28:37 10° N
NOSS 2-3 (D) 4.4 20:20:51 10° WNW 20:26:31 87° SSW 20:27:45 62° ESE
Cosmos 2058 3.9 20:22:40 10° NNW 20:25:40 45° NNW 20:25:40 45° NNW
Cosmos 2219 4.3 20:23:20 10° NW 20:28:45 43° NNE 20:32:12 21° E
Helios 1A 3.9 20:31:04 48° N 20:31:04 48° N 20:34:10 10° NNW
ALOS 2 3.7 20:33:26 39° WNW 20:33:26 39° WNW 20:36:39 10° NNW
Cosmos 1624 Rocket 4.5 20:35:52 51° ENE 20:35:52 51° ENE 20:40:06 10° NE
Meteor 2-15 4.3 20:38:34 79° S 20:38:57 86° ESE 20:45:09 10° NNE
Cosmos 2074 Rocket 4.2 20:34:20 10° NNW 20:40:36 62° ENE 20:41:38 54° ESE
SL-16 R/B 3.5 20:42:08 26° E 20:44:56 40° NE 20:50:38 10° NNW
Cosmos 2082 Rocket 4.5 20:44:47 10° WNW 20:46:29 11° W 20:46:33 11° W
Cosmos 1709 Rocket 3.9 20:40:26 10° NNW 20:46:33 69° W 20:46:53 68° WSW
USA 229 DEB 3.7 20:41:57 10° WNW 20:49:00 73° SW 20:49:59 64° SSE
USA 229 3.7 20:42:03 10° WNW 20:49:06 73° SW 20:50:06 64° SSE
COSMOS 2455 2.7 20:52:44 83° S 20:52:54 85° SE 20:59:00 10° NE
NOSS 2-3 (C) 4.4 20:47:25 10° WNW 20:53:12 75° SSW 20:53:36 73° S
Cosmos 1943 Rocket 2.5 20:54:15 54° E 20:54:15 54° E 20:59:02 10° NE
S3M 3.9 20:53:53 69° WSW 20:54:31 75° WNW 21:00:42 10° NNE
CZ-2D R/B 4.3 20:53:57 10° NE 20:56:52 15° E 20:58:08 14° E
NOSS 3-4 (A) 3.5 20:54:06 35° W 20:56:57 80° NNW 21:03:50 10° ENE
NOSS 3-4 (C) 3.5 20:54:16 36° W 20:57:02 80° NNW 21:03:56 10° ENE
NOSS 3-1 (A) 3.8 20:54:10 10° WNW 21:01:04 75° SW 21:02:58 54° SSE
Nimbus 7 Rocket 4.3 20:55:05 10° NNE 21:01:09 88° WNW 21:01:38 77° SSW
Cosmos 2297 Rocket 2.9 20:57:03 10° NW 21:02:38 52° NE 21:05:21 29° E
Meteor 2-10 Rocket 3.7 21:02:40 73° ESE 21:02:44 73° ESE 21:08:29 10° NNE
Cosmos 1346 Rocket 4.5 21:06:12 10° NNW 21:08:21 29° NW 21:08:21 29° NW
Resurs 1-4 Rocket 4.0 21:08:05 10° NE 21:11:40 18° E 21:12:46 17° E
Cosmos 2297 3.6 21:12:01 78° W 21:12:17 81° NW 21:17:59 10° NE
Cosmos 2315 Rocket 3.8 21:13:48 75° S 21:14:26 88° ESE 21:20:46 10° NNE
NOSS 2-2 (E) 4.1 21:10:46 10° WNW 21:15:14 73° NNE 21:21:23 10° E
Okean 3 Rocket 4.2 21:11:33 10° NNW 21:15:13 57° N 21:15:13 57° N
Thor Agena Rocket 4.0 21:11:15 10° NNE 21:16:25 55° WNW 21:16:46 54° WNW
CZ-4C R/B 2.2 21:16:50 76° SE 21:16:50 76° SE 21:23:26 10° ENE
Cosmos 2369 Rocket 2.4 21:17:32 57° E 21:17:32 57° E 21:22:42 10° NE
Cosmos 304 Rocket 4.5 21:21:25 47° ENE 21:21:25 47° ENE 21:25:12 10° NE
Cosmos 2184 Rocket 3.8 21:14:19 10° NNW 21:20:32 87° WSW 21:21:05 76° S
ATLAS 2AS CENTAUR R/B 3.1 21:12:41 10° WSW 21:20:41 77° NNW 21:28:19 10° ENE
Cosmos 1400 Rocket 4.0 21:24:18 43° N 21:24:18 43° N 21:27:12 10° NNE
MOZ.5/SAFIR/RUBIN 5/SL-8 4.2 21:23:29 58° ENE 21:23:29 58° ENE 21:27:55 10° NNW
NOSS 2-2 (D) 4.0 21:19:16 10° WNW 21:23:39 72° NNE 21:29:39 10° E
Cosmos 2278 Rocket 3.3 21:22:33 24° W 21:25:33 41° NNW 21:30:56 10° NE
Cosmos 1455 3.7 21:27:04 35° N 21:27:04 35° N 21:29:21 10° NNE
Meteor 2-17 Rocket 4.3 21:19:39 10° NNW 21:25:48 73° W 21:26:08 71° SW
Cosmos 2151 4.1 21:23:29 10° NNW 21:26:24 39° NW 21:26:24 39° NW
Cosmos 1371 Rocket 4.2 21:28:26 66° WNW 21:28:41 67° NW 21:34:04 10° NNE
Cosmos 1486 Rocket 4.2 21:23:49 10° NNW 21:29:08 69° NE 21:29:40 64° E
RESURS DK-1 3.5 21:30:24 40° NNW 21:30:24 40° NNW 21:34:10 10° NE
Cosmos 1408 Rocket 4.2 21:27:05 10° N 21:30:35 54° NNE 21:30:35 54° NNE
SJ 16-02 4.3 21:28:43 10° NNW 21:31:31 16° NNE 21:34:17 10° ENE
Cosmos 2263 Rocket 3.9 21:27:40 10° NW 21:32:44 32° NNE 21:37:48 10° E
Geosat 4.0 21:41:23 70° WNW 21:41:23 70° WNW 21:45:55 10° NW
Cosmos-2242 3.6 21:42:43 55° NNE 21:42:43 55° NNE 21:46:09 10° NNE
NOSS 3-1 (C) 4.2 21:35:18 10° WNW 21:41:28 46° WSW 21:41:28 46° WSW
Helios 1B rocket 3.5 21:39:17 10° NNE 21:42:28 42° ENE 21:42:28 42° ENE
Cosmos 1610 Rocket 4.3 21:37:24 10° NNW 21:43:36 87° WSW 21:44:23 70° S
Cosmos 2056 Rocket 3.7 21:43:24 59° WNW 21:43:48 61° NW 21:49:03 10° NNE
Cosmos 1825 4.5 21:41:37 10° NNW 21:42:57 18° NW 21:42:57 18° NW
DELTA 2 DEB (DPAF) 4.5 21:45:32 63° NE 21:45:32 63° NE 21:49:43 10° NNW
USA 81 3.9 21:46:38 10° N 21:51:58 85° E 21:52:07 83° SE
Cosmos 2221 3.9 21:52:23 31° E 21:52:23 31° E 21:56:05 10° NNE
Cosmos 1295 Rocket 4.4 21:46:29 10° NNW 21:52:53 89° E 21:53:59 63° SSE
COBE Rocket 4.4 21:52:08 51° ESE 21:52:59 59° ENE 21:58:03 10° N
Cosmos 1420 Rocket 4.0 21:55:00 74° W 21:55:13 75° NW 22:00:35 10° NNE
Cosmos 2227 Rocket 2.2 21:54:09 10° NW 21:59:51 78° NE 22:01:46 43° SE
CZ-4C R/B 4.0 21:59:52 61° ENE 21:59:52 61° ENE 22:04:16 10° NNW
Cosmos 1812 Rocket 4.3 22:01:52 46° NW 22:01:52 46° NW 22:05:45 10° N
Cosmos 371 Rocket 3.6 22:01:20 56° NW 22:01:25 56° NW 22:06:11 10° NNE
USA 234 3.2 21:55:35 10° ESE 22:02:03 60° SSW 22:08:32 10° W
Cosmos 1452 Rocket 3.4 22:03:25 85° WSW 22:03:34 87° NW 22:08:52 10° NNE
Timation 2 Rocket 3.8 21:57:51 10° NW 22:03:57 65° SW 22:04:09 65° SW
Sich 1 4.2 22:00:12 10° N 22:04:14 38° ENE 22:05:04 34° E
Cosmos 332 Rocket 3.9 22:04:32 67° NW 22:04:32 67° NW 22:09:27 10° NNE
Cosmos 1842 Rocket 4.4 22:06:24 44° E 22:06:24 44° E 22:10:40 10° NNE
Meteor 2-3 Rocket 3.9 22:01:17 10° NNW 22:06:33 54° W 22:06:33 54° W
Meteor 2-12 Rocket 4.4 22:01:42 10° NNW 22:07:48 77° ENE 22:09:27 50° SSE
NOSS 2-2 (C) 3.9 22:05:49 28° WNW 22:08:26 88° NNE 22:14:46 10° ESE
Cosmos 1743 Rocket 3.8 22:04:37 10° NNW 22:08:25 65° N 22:08:25 65° N
Cosmos 1500 Rocket 3.7 22:08:02 10° NNW 22:12:06 72° N 22:12:06 72° N
Cosmos 2219 3.1 22:07:41 10° NW 22:13:24 79° SW 22:14:03 69° S
ADEOS II 3.9 22:09:56 10° NE 22:14:08 23° E 22:16:36 17° SE
Cosmos 2154 Rocket 4.0 22:08:21 10° NNW 22:14:32 62° W 22:15:13 58° SW
UNK 3.7 22:15:04 77° NW 22:15:04 77° NW 22:19:22 10° NNW
Cosmos 1110 Rocket 4.1 22:15:22 63° SE 22:15:42 65° ESE 22:20:59 10° NE
Spot 1 4.4 22:25:54 63° WNW 22:25:54 63° WNW 22:30:30 10° NNW
Cosmos 1331 Rocket 4.0 22:25:21 65° SSE 22:25:46 69° ESE 22:30:58 10° NE
Cosmos 2341 Rocket 3.9 22:20:14 10° NNW 22:26:38 80° W 22:28:11 54° S
SL-16 R/B 2.4 22:27:13 57° SSW 22:28:21 69° WSW 22:34:32 10° NNW
Cosmos 968 Rocket 3.6 22:23:35 10° NW 22:28:23 59° W 22:28:23 59° W
Meteor 1-27 4.2 22:28:20 61° S 22:29:24 82° ESE 22:35:09 10° NNE
SL-08 R/B 4.3 22:29:15 19° ESE 22:32:14 44° ENE 22:36:38 10° N
Cosmos 962 Rocket 4.4 22:26:19 10° NNW 22:32:27 70° W 22:33:39 56° SSW
Cosmos 1633 Rocket 4.2 22:28:44 10° N 22:32:54 40° ENE 22:34:55 25° ESE
Cosmos 1943 Rocket 2.7 22:35:45 38° W 22:37:29 51° NW 22:42:57 10° NE
Cosmos 1869 3.5 22:38:01 67° NE 22:38:01 67° NE 22:41:32 10° NNE
Cosmos 1666 Rocket 4.3 22:33:36 10° N 22:38:00 50° ENE 22:39:36 33° ESE
CZ-2D R/B 2.5 22:32:49 10° NNE 22:38:08 58° ESE 22:39:26 45° SSE
COSMOS 2455 3.5 22:35:52 24° W 22:39:19 52° NNW 22:45:15 10° ENE
Cosmos 1315 Rocket 3.9 22:40:25 34° NW 22:40:25 34° NW 22:43:34 10° N
Cosmos 1656 Rocket 3.6 22:40:20 61° WSW 22:41:19 81° NW 22:46:56 10° NE
PSLV R/B 4.4 22:38:23 10° N 22:42:44 41° WNW 22:42:56 41° WNW
Cosmos 1805 Rocket 3.4 22:38:35 10° NNW 22:42:58 88° NE 22:42:58 88° NE
NPP 4.1 22:38:32 10° NNE 22:43:52 56° ESE 22:45:30 40° SSE
ATLAS 5 CENTAUR R/B 2.8 22:44:53 30° SE 22:44:53 30° SE 22:49:05 10° ENE
Cosmos 2297 Rocket 2.2 22:41:17 10° NW 22:46:52 58° WSW 22:47:05 57° SW
NOSS 3-4 (A) 3.8 22:41:56 10° WNW 22:48:20 72° N 22:55:30 10° E
NOSS 3-4 (C) 3.8 22:42:02 10° WNW 22:48:26 72° N 22:55:36 10° E
Meteor 1-29 4.0 22:45:40 10° NNE 22:48:04 41° N 22:48:04 41° N
Cosmos 2082 3.6 22:45:21 10° NW 22:51:04 86° SW 22:56:48 10° SE
SL-19 R/B 4.1 22:49:20 45° S 22:51:09 79° WSW 22:56:54 10° NNW
Resurs 1-4 Rocket 2.2 22:47:10 10° NNE 22:52:28 72° ESE 22:53:50 49° S
SL-19 R/B 4.0 22:49:58 10° NNE 22:55:14 87° WNW 22:56:20 57° SSW
Cosmos 2263 4.5 22:53:55 44° W 22:55:39 63° NW 23:01:27 10° NE
CZ-4 R/B 4.5 22:52:05 10° N 22:56:44 43° WNW 22:57:24 40° W
Nadezhda 1 Rocket 4.1 22:58:04 46° WSW 22:59:39 61° WNW 23:05:42 10° N
Cosmos 1354 Rocket 3.9 22:54:37 10° NW 22:59:49 61° WSW 23:00:17 58° SW
Cosmos 2369 Rocket 2.7 22:59:18 35° W 23:01:20 51° NW 23:06:55 10° NE
Cosmos 1455 4.4 23:01:59 16° NW 23:01:59 16° NW 23:04:12 10° NNW
Genesis I 4.5 23:03:13 29° ESE 23:03:13 29° ESE 23:06:23 10° ENE
CZ-4C R/B 2.7 23:02:00 27° W 23:05:30 71° N 23:12:42 10° ENE
NOSS 2-1 (E) 4.0 23:05:53 39° ESE 23:05:53 39° ESE 23:09:21 10° ENE
NOSS 2-2 (E) 4.2 23:01:05 10° WNW 23:05:58 59° SW 23:12:43 10° SE
RESURS DK-1 4.5 23:06:17 13° WNW 23:09:10 24° N 23:12:36 10° NE
Cosmos 2278 Rocket 3.9 23:06:03 10° WNW 23:10:59 29° N 23:15:55 10° ENE
SJ 16-02 2.9 23:07:12 10° NNW 23:11:20 37° NE 23:15:25 10° ESE
Cosmos 1862 4.3 23:08:29 10° NNW 23:11:15 34° WNW 23:11:15 34° WNW
ATLAS 2AS CENTAUR R/B 3.1 23:04:24 10° WNW 23:12:19 74° N 23:19:44 10° E
Cosmos 1697 Rocket 4.5 23:09:03 13° SSE 23:12:43 24° ESE 23:17:04 10° NE
Cosmos 1503 Rocket 4.2 23:08:09 10° NW 23:12:55 46° WSW 23:12:55 46° WSW
NOSS 2-2 (D) 4.1 23:09:36 10° WNW 23:14:24 59° SW 23:21:00 10° SE
Cosmos 2263 Rocket 2.6 23:12:01 10° NW 23:17:38 63° NE 23:23:16 10° ESE
Helios 1B rocket 3.4 23:14:47 10° N 23:18:31 33° WNW 23:18:47 33° WNW
Cosmos 405 Rocket 2.6 23:15:37 10° NNW 23:19:41 79° WSW 23:19:56 74° SSW
Cosmos 1821 Rocket 4.1 23:14:38 10° NNW 23:21:03 80° ENE 23:27:20 10° SSE
Meteor 1-28 Rocket 3.0 23:21:37 70° SSE 23:22:01 90° NE 23:25:47 10° NNW
Cosmos 1844 Rocket 4.2 23:18:50 10° NW 23:24:02 37° NNE 23:29:15 10° E
ATLAS CENTAUR R/B 4.0 23:07:30 11° WSW 23:24:43 73° S 23:31:00 10° E
SL-8 Rocket 4.3 23:19:47 10° NNW 23:25:48 48° W 23:27:37 38° SW
H-2A R/B 3.3 23:22:26 10° SE 23:26:36 43° ENE 23:30:53 10° N
Cosmos 1818 4.3 23:24:54 32° S 23:26:49 44° SE 23:31:59 10° ENE
Cosmos 2227 4.4 23:22:26 10° NW 23:28:09 72° NE 23:33:48 10° SE
Cosmos 2221 2.8 23:29:14 47° W 23:29:42 50° WNW 23:33:56 10° N
Cosmos 1602 4.4 23:26:09 10° N 23:29:57 54° ENE 23:33:00 15° SSE
ERS-2 4.2 23:31:39 10° ESE 23:34:53 30° ENE 23:38:08 10° N
Cosmos 1934 Rocket 4.2 23:30:17 10° NNW 23:36:21 67° ENE 23:42:23 10° SSE
Cosmos 2218 Rocket 4.3 23:30:54 10° NNW 23:36:59 48° W 23:39:21 33° SW
Cosmos 1470 Rocket 3.6 23:33:20 10° NNW 23:37:47 79° ENE 23:41:17 16° SSE
Cosmos 2366 rocket 4.3 23:33:37 10° NNW 23:39:35 47° W 23:41:56 33° SW
Sich 1 3.4 23:37:57 10° NNW 23:41:59 41° W 23:41:59 41° W
Meteor 2-2 Rocket 4.4 23:40:08 36° SW 23:42:24 62° WNW 23:48:13 10° NNE
Cosmos 2227 Rocket 2.8 23:38:33 10° NW 23:43:29 33° WSW 23:43:29 33° WSW
Cosmos 1842 Rocket 4.3 23:43:34 35° W 23:44:23 38° WNW 23:48:37 10° N
Cosmos 1777 Rocket 4.0 23:40:31 10° NW 23:45:42 61° WSW 23:50:50 10° SSE
USA 234 3.7 23:39:57 10° SSE 23:45:55 37° SW 23:50:27 17° W
ADEOS Rocket 4.1 23:39:54 10° SE 23:46:07 48° ENE 23:51:48 10° NNW
Cosmos 1898 Rocket 4.2 23:44:13 10° NNW 23:49:22 55° NE 23:54:32 10° SE
Cosmos 292 Rocket 4.0 23:48:09 37° WSW 23:49:46 56° NW 23:54:29 10° NNE
Cosmos 1238 Rocket 4.3 23:43:11 10° NNW 23:49:50 74° ENE 23:56:19 10° SSE
Meteor 1-20 Rocket 4.0 23:44:28 10° NNW 23:49:59 71° WSW 23:54:39 14° S
Cosmos 1656 4.0 23:49:11 25° S 23:52:15 57° ESE 23:57:41 10° NE
Cosmos 1992 Rocket 4.0 23:50:18 31° SSW 23:52:52 78° ESE 23:58:07 10° NE
ADEOS II 2.0 23:49:14 10° NNE 23:54:33 89° W 23:57:32 27° SSW
Lacrosse 5 3.8 23:53:36 13° S 23:56:13 19° SE 23:59:44 10° E
